Hourly Data Report for October 08, 2019

QUALICUM BEACH AIRPORT
BRITISH COLUMBIA
Current Station Operator: ECCC - MSC

49°20'14.000" N
124°23'38.000" W
58.20 m
1026562
71766
VOQ

Download Data

Hourly Data (October 2019)
Hourly Data Report for October 8, 2019
TIME
LST
Temp Definition
°C
Dew Point Definition
°C
Rel Hum Definition
%
Precip. Amount Definition
mm

Wind Dir Definition
10's deg

Wind Spd Definition
km/h
Visibility Definition
km
Stn Press Definition
kPa
Hmdx Definition


Wind Chill Definition


Weather Definition


00:00 7.2 4.9 85 0.0 28 5   100.39     LegendNANA
01:00 5.6 4.4 92 0.0 28 4   100.38     LegendNANA
02:00 7.0 4.2 82 0.0 29 7   100.39     LegendNANA
03:00 5.4 3.9 90 0.0 24 6   100.38     LegendNANA
04:00 7.1 5.0 86 0.5 31 11   100.39     LegendNANA
05:00 4.8 3.3 90 1.5 22 5   100.41     LegendNANA
06:00 4.3 2.7 90 0.6 25 6   100.41     LegendNANA
07:00 3.8 2.7 93 0.0 26 5   100.44     LegendNANA
08:00 4.7 4.0 95 0.0 26 7   100.53     LegendNANA
09:00 6.2 3.3 82 0.0 29 12   100.59     LegendNANA
10:00 8.4 3.3 70 0.0 31 16   100.66     LegendNANA
11:00 8.9 3.2 67 0.0 31 23   100.69     LegendNANA
12:00 9.5 3.4 66 0.0 33 19   100.72     LegendNANA
13:00 10.5 3.2 60 0.0 33 22   100.77     LegendNANA
14:00 11.3 2.9 56 0.0 32 27   100.84     LegendNANA
15:00 11.2 2.3 54 0.0 31 27   100.90     LegendNANA
16:00 11.3 2.5 55 0.0 32 21   100.98     LegendNANA
17:00 10.9 2.1 55 0.0 32 25   101.06     LegendNANA
18:00 10.2 -0.2 48 0.0 31 22   101.15     LegendNANA
19:00 9.4 -0.8 49 0.0 30 15   101.25     LegendNANA
20:00 8.5 -0.5 53 0.0 29 15   101.33     LegendNANA
21:00 8.4 -1.5 50 0.0 31 19   101.43     LegendNANA
22:00 7.9 -2.4 48 0.0 31 19   101.54     LegendNANA
23:00 7.5 -3.3 46 0.0 30 17   101.64     LegendNANA

Notes on Data Quality.

Legend

  • E = Estimated
  • M = Missing
  • NA = Not Available*
  • [empty] = Indicates an unobserved value
Date modified: